EW2849 Weather Reports


time (UTC)temp
F
wind
direction
speed
knots
gust
knots
rain 1hr
in
rain 24hr
in
rain mn
in
humidity
%
barometer
mb
20260505211535 52 33 2.6 4.3 0.00 0.00 0.00 90 1008.8
20260505210435 52 23 7.0 12.2 0.00 0.00 0.00 90 1008.8
20260505205214 53 40 4.3 6.1 0.00 0.00 0.00 89 1008.8
20260505204012 53 23 3.5 6.1 0.00 0.00 0.00 89 1008.8
20260505202812 53 39 7.0 9.6 0.00 0.00 0.00 89 1008.8
20260505201611 54 17 6.1 7.0 0.00 0.00 0.00 89 1008.8
20260505200429 54 41 5.2 6.1 0.00 0.00 0.00 89 1008.8
20260505195209 54 40 6.1 10.4 0.00 0.00 0.00 90 1008.8
20260505194007 54 23 5.2 10.4 0.00 0.00 0.00 92 1008.8
20260505192806 54 23 6.1 9.6 0.00 0.00 0.00 93 1008.8
20260505191605 55 31 2.6 6.1 0.00 0.00 0.00 94 1008.8
20260505190424 55 31 2.6 5.2 0.00 0.00 0.00 94 1007.1
20260505185202 55 23 1.7 2.6 0.00 0.00 0.00 94 1008.8
20260505184001 55 36 1.7 3.5 0.00 0.00 0.00 94 1008.8
20260505182800 55 15 1.7 3.5 0.00 0.00 0.00 94 1008.8
20260505181559 55 36 2.6 4.3 0.00 0.00 0.00 93 1008.8
20260505180358 55 45 2.6 4.3 0.00 0.00 0.00 93 1008.8
20260505175156 56 40 3.5 4.3 0.00 0.00 0.00 92 1008.8
20260505173956 56 45 2.6 4.3 0.00 0.00 0.00 92 1008.8
20260505172754 56 45 3.5 4.3 0.00 0.00 0.00 92 1008.8
20260505171553 56 51 4.3 7.0 0.00 0.00 0.00 92 1008.8
20260505170412 56 45 4.3 6.1 0.00 0.00 0.00 92 1008.8
20260505165211 56 23 5.2 6.1 0.00 0.00 0.00 92 1008.8
20260505163950 56 45 3.5 5.2 0.00 0.00 0.00 93 1008.8
20260505162749 56 56 6.1 8.7 0.00 0.00 0.00 93 1008.8
20260505161608 57 45 4.3 7.8 0.00 0.00 0.00 94 1008.8
20260505160346 56 45 5.2 6.1 0.00 0.00 0.00 94 1008.8
20260505152742 56 28 4.3 7.0 0.00 0.00 0.00 95 1008.8
20260505151542 56 23 3.5 6.1 0.00 0.00 0.00 95 1008.8
20260505150341 56 338 3.5 3.5 0.00 0.00 0.00 95 1008.8
20260505140334 56 338 3.5 3.5 0.00 0.00 0.00 97 1008.8
20260505123946 55 338 3.5 3.5 0.00 0.00 0.00 100 1008.8
20260505122745 55 338 3.5 3.5 0.00 0.00 0.00 100 1008.8
20260505121524 54 338 3.5 3.5 0.00 0.00 0.00 100 1008.8
20260505120323 53 338 3.5 3.5 0.00 0.00 0.00 100 1008.8
20260505115122 53 338 3.5 3.5 0.00 0.00 0.00 100 1008.8
20260505113921 53 338 3.5 3.5 0.00 0.00 0.00 100 1008.8
20260505112720 52 338 3.5 3.5 0.00 0.00 0.00 100 1008.8
20260505111519 52 338 3.5 3.5 0.00 0.00 0.00 100 1008.8
20260505110317 52 338 3.5 3.5 0.00 0.00 0.00 100 1008.8
20260505101611 52 338 3.5 3.5 0.00 0.00 0.00 100 1008.8
20260505100410 52 338 3.5 3.5 0.00 0.00 0.00 100 1008.8
20260505095209 52 338 3.5 3.5 0.00 0.00 0.00 100 1008.8
20260505094008 52 338 3.5 3.5 0.00 0.00 0.00 100 1008.8
20260505081620 51 338 3.5 3.5 0.00 0.00 0.00 100 1008.8
20260505080359 51 338 3.5 3.5 0.00 0.00 0.00 100 1008.8
20260505075157 51 338 3.5 3.5 0.00 0.00 0.00 100 1008.8
20260505073957 51 338 3.5 3.5 0.00 0.00 0.00 100 1008.8
20260505072755 51 338 3.5 3.5 0.00 0.00 0.00 100 1008.8
20260505071554 51 338 3.5 3.5 0.00 0.00 0.00 100 1008.8
20260505070352 52 338 3.5 3.5 0.00 0.00 0.00 100 1008.8
20260505065211 52 338 3.5 3.5 0.00 0.00 0.00 100 1008.8
20260505063950 52 338 3.5 3.5 0.00 0.00 0.00 100 1008.8
20260505062749 51 338 3.5 3.5 0.00 0.00 0.00 100 1008.8
20260505061547 51 338 3.5 3.5 0.00 0.00 0.00 100 1008.8
20260505060346 52 338 3.5 3.5 0.00 0.00 0.00 100 1008.8
20260505055146 52 338 3.5 3.5 0.00 0.00 0.00 100 1008.8
20260505053945 51 338 3.5 3.5 0.00 0.00 0.00 100 1008.8
20260505052743 51 338 3.5 3.5 0.00 0.00 0.00 100 1008.8
20260505051543 51 338 3.5 3.5 0.00 0.00 0.00 100 1008.8
20260505050341 52 338 3.5 3.5 0.00 0.00 0.00 100 1008.8
20260505041537 52 338 3.5 3.5 0.00 0.00 0.00 100 1008.8
20260505040336 52 338 3.5 3.5 0.00 0.00 0.00 100 1008.8
20260505035135 52 338 3.5 3.5 0.00 0.00 0.00 100 1008.8
20260505033934 52 338 3.5 3.5 0.00 0.00 0.00 100 1008.8
20260505032733 52 338 3.5 3.5 0.00 0.00 0.00 100 1008.8
20260505031531 52 338 3.5 3.5 0.00 0.00 0.00 100 1008.8
20260505030350 53 338 3.5 3.5 0.00 0.00 0.00 100 1008.8
20260505025129 53 338 3.5 3.5 0.00 0.00 0.00 100 1008.8
20260505023928 53 338 3.5 3.5 0.00 0.00 0.00 100 1008.8
20260505022727 53 338 3.5 3.5 0.00 0.00 0.00 100 1008.8
20260505021526 53 338 3.5 3.5 0.00 0.00 0.00 100 1008.8
20260505020324 53 338 3.5 3.5 0.00 0.00 0.00 100 1008.8
20260505015123 53 338 3.5 3.5 0.00 0.00 0.00 100 1008.8
20260505013922 54 338 3.5 3.5 0.00 0.00 0.00 100 1008.8
20260505012723 54 338 3.5 3.5 0.00 0.00 0.00 100 1008.8
20260505011520 54 338 3.5 3.5 0.00 0.00 0.00 100 1008.8
20260505010320 54 338 3.5 3.5 0.00 0.00 0.00 100 1008.8
20260505005118 54 338 3.5 3.5 0.00 0.00 0.00 100 1008.8
20260505003918 55 338 3.5 3.5 0.00 0.00 0.00 100 1008.8
20260505002716 55 338 3.5 3.5 0.00 0.00 0.00 100 1008.8
20260505000414 55 338 3.5 3.5 0.00 0.00 0.00 100 1008.8
20260504235213 56 338 3.5 3.5 0.00 0.00 0.00 100 1011.4
20260504234012 56 338 3.5 3.5 0.00 0.00 0.00 100 1012.2
20260504232810 56 338 3.5 3.5 0.00 0.00 0.00 100 1012.2
20260504231609 56 338 3.5 3.5 0.00 0.00 0.00 100 1012.2
20260504230409 56 338 3.5 3.5 0.00 0.00 0.00 100 1012.2
20260504225228 56 338 3.5 3.5 0.00 0.00 0.00 100 1012.2
20260504224006 56 338 3.5 3.5 0.00 0.00 0.00 100 1012.2
20260504222805 57 338 3.5 3.5 0.00 0.00 0.00 100 1012.2
20260504221604 57 338 3.5 3.5 0.00 0.00 0.00 100 1012.2
20260504220402 57 338 3.5 3.5 0.00 0.00 0.00 100 1012.2
20260504215154 57 338 3.5 3.5 0.00 0.00 0.00 100 1012.2
20260504213953 58 338 3.5 3.5 0.00 0.00 0.00 100 1012.2
20260504212752 58 338 3.5 3.5 0.00 0.00 0.00 100 1012.2